Regional Weather Roundup
Issued by NWS

Home | Current Version | Previous Version | Text Only | Print | Product List | Glossary Off
Versions: 1 2 3 4 5 6 7 8 9 10 11 12 13 14 15 16 17 18 19 20 21 22 23 24 25 26 27 28 29 30 31 32 33 34 35 36 37 38 39 40 41 42 43 44 45 46 47 48 49 50

000
ASUS43 KIND 300509
RWRIN

WEATHER ROUNDUP FOR INDIANA
NATIONAL WEATHER SERVICE INDIANAPOLIS IN
100 AM EDT MON MAR 30 2015

NOTE: "FAIR" INDICATES FEW OR NO CLOUDS BELOW 12,000 FEET WITH NO
SIGNIFICANT WEATHER AND/OR OBSTRUCTIONS TO VISIBILITY.

* - STATION DOES NOT REPORT WEATHER SUCH AS PRECIPITATION OR FOG.

+ - STATION NOT QUALITY CONTROLLED BY THE NATIONAL WEATHER SERVICE.
    USE DATA WITH CAUTION...ESPECIALLY DEWPOINT AND RELATIVE
    HUMIDITY OBSERVATIONS.

INZ001>003-010>013-019-020-300600-
NORTHWEST INDIANA

CITY           SKY/WX    TMP DP  RH WIND       PRES   REMARKS
GARY /AIRPORT/ MOCLDY    44  31  60 W5        29.94R
KNOX *+          N/A     43  21  42 NW8       29.93R
LA PORTE +     CLOUDY    45  34  66 NW6       29.93R
MICHIGAN CITY+ CLOUDY    41  30  65 W8        29.94R
MONTICELLO +   MOCLDY    40  34  79 NW9       29.96R
RENSSELAER +   CLOUDY    41  36  81 W5        29.96S
VALPARAISO     MOCLDY    41  33  73 W7        29.94R

$$

LMZ046-743>745-300600-
SOUTHERN LAKE MICHIGAN

STATION/POSITION TIME  TEMP WIND        PRES
                       AIR  DIR/SP/G
                 (UTC) (F)  (DEG/KT/KT) (MB)
BURNS HARBOR     0500   41  280/  9/ 14 1014.2S
MICHIGAN CITY    0500   39  260/ 12/ 13   N/A

$$

INZ004-005-014>016-021>024-300600-
NORTH CENTRAL INDIANA

CITY           SKY/WX    TMP DP  RH WIND       PRES   REMARKS
GOSHEN         CLOUDY    44  34  67 W14       29.89R
LOGANSPORT +   MOCLDY    43  36  75 W10       29.95R
PERU/GRISSOM   MOCLDY    44  38  80 W14       29.93R
ROCHESTER +    MOCLDY    45  36  70 NW13      29.93R
SOUTH BEND     CLOUDY    44  33  65 NW16G26   29.91R
WARSAW +       CLOUDY    41  36  81 W14       29.90R

$$

INZ006>009-017-018-025>027-300600-
NORTHEAST INDIANA

CITY           SKY/WX    TMP DP  RH WIND       PRES   REMARKS
ANGOLA *+      CLOUDY    43  32  65 NW9       29.85R
AUBURN +       PTCLDY    43  32  65 W15G22    29.87R
FORT WAYNE     MOCLDY    44  36  73 W16G24    29.89R
HUNTINGTON +   CLOUDY    44  33  65 W6        29.90R

$$

INZ028-029-035-036-043>045-051>053-300600-
WEST CENTRAL INDIANA

CITY           SKY/WX    TMP DP  RH WIND       PRES   REMARKS
CRAWFORDSVL +  MOCLDY    45  35  69 W13       29.99R
GREENCASTLE +  CLOUDY    46  37  71 W7        30.00R
LAFAYETTE      MOCLDY    43  33  68 NW9       29.98R
TERRE HAUTE    PTCLDY    46  40  79 W10       30.02R

$$

INZ030>032-037>040-046>048-054>057-064-065-300600-
CENTRAL INDIANA

CITY           SKY/WX    TMP DP  RH WIND       PRES   REMARKS
CP ATTERBURY + CLOUDY    48  41  76 W14G22    29.98S
FISHERS *+     CLOUDY    46  43  87 W14G23    29.97R
FRANKFORT +    PTCLDY    45  36  72 W17G26    29.99R
GREENWOOD *+   CLOUDY    46  39  76 W12G17    29.97R
INDIANAPOLIS   CLOUDY    47  40  76 W17       29.96R
-EAGLE CREEK   CLOUDY    47  40  76 W12G24    29.97R
KOKOMO *+        N/A     45  37  76 W21       29.94R
MARION +       CLOUDY    43  37  79 W22       29.93R
MT COMFORT *+  MOCLDY    46  36  66 W13       29.96R
SHELBYVILLE    CLOUDY    48  41  76 W14       29.96R
ZIONSVILLE +   CLOUDY    46  39  75 W15G21    29.97R

$$

INZ033-034-041-042-049-050-058-059-300600-
EAST CENTRAL INDIANA

CITY           SKY/WX    TMP DP  RH WIND       PRES   REMARKS
MUNCIE         CLOUDY    46  39  76 W16G24    29.92R

$$

INZ060-061-067>069-081>083-085>088-300600-
SOUTHWEST INDIANA

CITY           SKY/WX    TMP DP  RH WIND       PRES   REMARKS
EVANSVILLE     CLOUDY    55  45  68 W13       30.07R
HUNTINGBURG *+ MOCLDY    52  43  71 W14       30.05S
WASHINGTON +   CLOUDY    50  41  69 W16       30.03S

$$

INZ062-063-066-070>080-084-089>092-300600-
SOUTH CENTRAL AND SOUTHEAST INDIANA

CITY           SKY/WX    TMP DP  RH WIND       PRES   REMARKS
BEDFORD +      CLOUDY    50  41  71 W12G17    30.02R
BLOOMINGTON    CLOUDY    49  42  77 W14G23    30.00R
NORTH VERNON + CLOUDY    46  46 100 SW9       29.99S
SEYMOUR +      CLOUDY    50  43  76 W13       30.00S

$$



USA.gov is the U.S. government's official web portal to all federal, state and local government web resources and services.